EW1979 Weather Reports


time (UTC)temp
C
wind
direction
speed
KPH
gust
KPH
rain 1hr
cm
rain 24hr
cm
rain mn
cm
humidity
%
barometer
mb
20260904004549 31 124 6.4 0.0 0.00 0.00 0.00 50 1006.6
20260904003050 32 134 3.2 0.0 0.00 0.00 0.00 49 1006.1
20260904001554 33 118 4.8 0.0 0.00 0.00 0.00 46 1005.8
20260904000110 33 132 4.8 0.0 0.00 0.00 0.00 44 1005.8
20260903234547 33 116 3.2 0.0 0.00 0.00 0.00 43 1005.9
20260903233109 34 91 3.2 0.0 0.00 0.00 0.00 44 1005.9
20260903231548 34 91 3.2 0.0 0.00 0.00 0.00 42 1005.9
20260903230105 35 115 6.4 0.0 0.00 0.00 0.00 41 1005.5
20260903224559 35 102 8.0 0.0 0.00 0.00 0.00 41 1005.5
20260903223111 35 174 4.8 0.0 0.00 0.00 0.00 41 1005.3
20260903221544 35 120 6.4 0.0 0.00 0.00 0.00 42 1005.6
20260903220042 33 133 1.6 0.0 0.00 0.00 0.00 45 1005.8
20260903214548 33 174 4.8 0.0 0.00 0.00 0.00 45 1005.8
20260903213053 33 72 3.2 0.0 0.00 0.00 0.00 43 1005.9
20260903211543 35 102 4.8 0.0 0.00 0.00 0.00 39 1005.9
20260903210059 36 135 4.8 0.0 0.00 0.00 0.00 40 1005.8
20260903204541 35 144 4.8 0.0 0.00 0.00 0.00 43 1006.2
20260903203037 35 165 4.8 0.0 0.00 0.00 0.00 42 1006.3
20260903201535 36 73 6.4 0.0 0.00 0.00 0.00 39 1006.3
20260903200034 36 244 6.4 0.0 0.00 0.00 0.00 39 1006.4
20260903194541 35 219 6.4 0.0 0.00 0.00 0.00 39 1006.6
20260903193031 35 213 8.0 0.0 0.00 0.00 0.00 40 1007.1
20260903191529 35 208 6.4 0.0 0.00 0.00 0.00 40 1007.1
20260903190028 35 196 11.3 0.0 0.00 0.00 0.00 41 1007.7
20260903184524 34 221 11.3 0.0 0.00 0.00 0.00 41 1007.9
20260903183021 34 132 11.3 0.0 0.00 0.00 0.00 42 1008.1
20260903181519 33 240 11.3 0.0 0.00 0.00 0.00 43 1008.3
20260903180018 33 214 8.0 0.0 0.00 0.00 0.00 45 1008.7
20260903174515 32 186 8.0 0.0 0.00 0.00 0.00 47 1008.7
20260903173013 32 215 9.7 0.0 0.00 0.00 0.00 52 1009.0
20260903171510 32 161 9.7 0.0 0.00 0.00 0.00 51 1009.3
20260903170012 31 229 12.9 0.0 0.00 0.00 0.00 52 1009.4
20260903164506 31 204 9.7 0.0 0.00 0.00 0.00 56 1009.4
20260903163006 30 202 11.3 0.0 0.00 0.00 0.00 61 1009.5
20260903161601 30 200 9.7 0.0 0.00 0.00 0.00 64 1009.5
20260903160057 28 171 8.0 0.0 0.00 0.00 0.00 68 1009.6
20260903154559 27 192 9.7 0.0 0.00 0.00 0.00 70 1009.5
20260903153054 27 170 12.9 0.0 0.00 0.00 0.00 72 1009.4
20260903151554 27 194 16.1 0.0 0.00 0.00 0.00 74 1009.4
20260903144553 27 195 11.3 0.0 0.00 0.00 0.00 77 1009.4
20260903143056 26 156 12.9 0.0 0.00 0.00 0.00 79 1009.6
20260903141558 26 195 12.9 0.0 0.00 0.00 0.00 82 1009.6
20260903140050 25 178 12.9 0.0 0.00 0.00 0.00 84 1009.8
20260903134550 25 183 11.3 0.0 0.00 0.00 0.00 85 1009.9
20260903133050 24 188 9.7 0.0 0.00 0.00 0.00 87 1010.1
20260903131604 24 167 9.7 0.0 0.00 0.00 0.00 88 1009.9
20260903130053 23 187 9.7 0.0 0.00 0.00 0.00 89 1009.9
20260903124546 23 201 11.3 0.0 0.00 0.00 0.00 89 1009.5
20260903123045 23 220 9.7 0.0 0.00 0.00 0.00 89 1009.3
20260903121555 23 213 9.7 0.0 0.00 0.00 0.00 89 1009.2
20260903120042 23 195 11.3 0.0 0.00 0.00 0.00 89 1009.1
20260903114543 23 182 11.3 0.0 0.00 0.00 0.00 88 1008.8
20260903113044 23 186 12.9 0.0 0.00 0.00 0.00 88 1008.8
20260903111545 23 193 12.9 0.0 0.00 0.00 0.00 87 1008.9
20260903110037 23 193 11.3 0.0 0.00 0.00 0.00 87 1008.9
20260903104548 23 168 11.3 0.0 0.00 0.00 0.00 87 1008.7
20260903103032 23 194 11.3 0.0 0.00 0.00 0.00 87 1008.6
20260903101529 23 184 11.3 0.0 0.00 0.00 0.00 87 1008.7
20260903100037 23 213 8.0 0.0 0.00 0.00 0.00 87 1008.7
20260903094527 23 204 9.7 0.0 0.00 0.00 0.00 87 1008.8
20260903093030 23 171 8.0 0.0 0.00 0.00 0.00 87 1009.0
20260903091524 23 182 6.4 0.0 0.00 0.00 0.00 86 1009.1
20260903090022 23 187 8.0 0.0 0.00 0.00 0.00 86 1008.9
20260903084520 24 178 6.4 0.0 0.00 0.00 0.00 83 1009.1
20260903083018 24 166 3.2 0.0 0.00 0.00 0.00 81 1008.9
20260903081520 25 186 6.4 0.0 0.00 0.00 0.00 80 1009.0
20260903080015 25 188 9.7 0.0 0.00 0.00 0.00 79 1008.9
20260903074512 25 213 11.3 0.0 0.00 0.00 0.00 78 1008.4
20260903073019 25 163 8.0 0.0 0.00 0.00 0.00 76 1008.5
20260903071509 25 185 9.7 0.0 0.00 0.00 0.00 76 1008.6
20260903070007 25 169 9.7 0.0 0.00 0.00 0.00 77 1008.9
20260903064503 26 161 8.0 0.0 0.00 0.00 0.00 75 1009.1
20260903063100 26 162 9.7 0.0 0.00 0.00 0.00 73 1008.9
20260903061601 26 152 8.0 0.0 0.00 0.00 0.00 71 1008.7
20260903060117 26 163 8.0 0.0 0.00 0.00 0.00 70 1008.7
20260903054552 27 159 14.5 0.0 0.00 0.00 0.00 68 1008.7
20260903053051 27 169 11.3 0.0 0.00 0.00 0.00 64 1008.9
20260903051547 27 196 11.3 0.0 0.00 0.00 0.00 64 1008.8
20260903050046 27 163 12.9 0.0 0.00 0.00 0.00 65 1008.4
20260903044544 28 168 14.5 0.0 0.00 0.00 0.00 64 1008.6
20260903043044 28 166 11.3 0.0 0.00 0.00 0.00 62 1008.6
20260903041545 28 177 9.7 0.0 0.00 0.00 0.00 58 1008.5
20260903040042 29 153 9.7 0.0 0.00 0.00 0.00 56 1008.3
20260903034542 29 126 1.6 0.0 0.00 0.00 0.00 50 1008.5
20260903033045 29 155 1.6 0.0 0.00 0.00 0.00 49 1008.2
20260903031544 30 153 3.2 0.0 0.00 0.00 0.00 48 1008.2
20260903030049 30 153 1.6 0.0 0.00 0.00 0.00 48 1007.8
20260903024541 30 157 3.2 0.0 0.00 0.00 0.00 47 1007.9
20260903023040 30 121 3.2 0.0 0.00 0.00 0.00 47 1007.7
20260903021546 30 144 3.2 0.0 0.00 0.00 0.00 47 1007.6
20260903020039 30 155 1.6 0.0 0.00 0.00 0.00 47 1007.4
20260903014547 30 126 1.6 0.0 0.00 0.00 0.00 46 1007.5
20260903013039 30 143 3.2 0.0 0.00 0.00 0.00 46 1007.5
20260903011551 30 147 3.2 0.0 0.00 0.00 0.00 45 1007.5
20260903010037 31 146 3.2 0.0 0.00 0.00 0.00 45 1007.1